Weather Service Report


188 
ASUS44 KOUN 281810
RWROK 

WEATHER ROUNDUP FOR OKLAHOMA
NATIONAL WEATHER SERVICE NORMAN OK
100 PM CDT THU AUG 28 2014

NOTE: "FAIR" INDICATES FEW OR NO CLOUDS BELOW 12,000 FEET WITH NO
      SIGNIFICANT WEATHER AND/OR OBSTRUCTIONS TO VISIBILITY.

OKZ001>007-009>012-014-015-017-281900-
NORTHWEST OKLAHOMA AND THE PANHANDLE
  
CITY           SKY/WX    TMP DP  RH WIND       PRES   REMARKS
GAGE           CLOUDY    85  66  53 SW18G24   29.95S                  
6HR MIN TEMP:  73; 6HR MAX TEMP:  86;                                

ENID/WOODRING  CLOUDY    91  61  35 S17G25    29.92F HX  91           
$$

OKZ016-021>023-033>039-044-045-281900-
SOUTHWEST OKLAHOMA
  
CITY           SKY/WX    TMP DP  RH WIND       PRES   REMARKS
LAWTON/REGL    MOSUNNY   95  59  30 SE12G17   29.92F HX  94           
6HR MIN TEMP:  70; 6HR MAX TEMP:  96;                                

LAWTON/FT SILL MOSUNNY   95  61  31 S10       29.92F HX  95           
FREDERICK      MOSUNNY   95  61  32 SW14G20   29.90F HX  95           
CLINTON        LGT RAIN  77  67  71 S14       29.97F                  
HOBART         CLOUDY    90  59  35 SW14      29.94F                  
ALTUS AFB      PTSUNNY   89  62  40 W13       29.93F HX  90           
$$

OKZ018>020-024>031-281900-
CENTRAL OKLAHOMA
  
CITY           SKY/WX    TMP DP  RH WIND       PRES   REMARKS
OKLAHOMA CITY  MOSUNNY   92  63  38 S12       29.95F HX  93           
6HR MIN TEMP:  68; 6HR MAX TEMP:  92;                                

OKC/WILEY POST SUNNY     93  63  36 S15       29.95F HX  94           
OKC/TINKER AFB SUNNY     90  62  39 S14       29.96F HX  90           
STILLWATER     SUNNY     94  60  32 SE15      29.94F HX  94           
GUTHRIE        MOSUNNY   91  62  37 S10       29.94F HX  91           
$$

OKZ008-013-054>072-281900-
NORTHEAST OKLAHOMA
  
CITY           SKY/WX    TMP DP  RH WIND       PRES   REMARKS
TULSA          MOSUNNY   92  63  38 S15       29.94F HX  93           
6HR MIN TEMP:  75; 6HR MAX TEMP:  93;                                

TULSA/JONES    SUNNY     92  60  34 S9        29.95F HX  91           
PONCA CITY     MOSUNNY   92  61  35 S10G17    29.93F HX  92           
BARTLESVILLE   MOSUNNY   92  65  40 SE8       29.96F HX  94           
MUSKOGEE       PTSUNNY   88  65  46 SW9       29.99F HX  90           
$$

OKZ032-040>043-046>053-073>077-281900-
SOUTH CENTRAL/SOUTHEAST OKLAHOMA
  
CITY           SKY/WX    TMP DP  RH WIND       PRES   REMARKS
ARDMORE/DWNTWN MOSUNNY   90  61  37 S8        29.96F                  
MCALESTER      MOSUNNY   90  66  45 S9        29.98F HX  92           
$$


Return to Home page


Western Regional Climate Center, wrcc@dri.edu